RH
69 69 73 79 82 82 81 82 84 84 87 85 79 80 80 78 80 81 80 79 79 78 78 78 78 78 77 78 78 78 80 77 76 77 76 76 75 76 75 72 71 71 70 67 64 63 62 62 61 60 59 61 62 59 56 54 53 52 50 48 47 46 45 45 43 42 41 40 39 38 37 35 35 37 38 38 38 39 39 39 39 40 42 43 44 44 46 47 48 50 51 52 51 51 51 51 51
68 70 73 77 80 82 81 81 82 82 84 82 78 79 78 76 76 75 73 73 74 74 74 75 77 78 76 77 77 76 80 80 76 74 73 73 75 75 72 71 70 69 66 64 61 59 59 58 58 58 57 57 57 56 54 52 52 50 48 46 45 45 44 44 42 41 40 39 39 38 38 37 37 38 39 40 41 41 41 41 42 43 43 43 42 43 44 45 46 47 49 50 51 52 52 52 51
66 70 71 75 77 79 81 83 84 82 83 80 75 75 74 75 71 68 69 69 72 73 73 74 76 78 75 75 77 76 78 78 73 71 72 72 73 72 71 70 69 67 63 61 60 57 56 55 55 55 54 54 54 54 52 50 49 46 44 44 44 44 43 41 39 38 39 39 39 39 39 39 40 40 41 42 42 43 43 43 44 45 45 44 43 43 44 45 45 46 47 50 51 52 51 53 53
65 69 69 73 76 78 82 82 82 83 81 75 73 73 71 70 65 64 67 68 71 72 73 73 74 77 74 73 73 73 75 75 72 71 71 70 68 68 69 68 67 65 61 59 57 56 54 54 55 53 50 50 51 52 50 48 46 45 42 41 42 43 41 39 38 38 39 40 40 40 40 41 41 41 42 43 43 44 44 45 46 47 47 46 45 46 46 47 47 48 48 49 51 51 51 52 52
65 69 68 71 73 75 78 77 79 80 78 74 73 71 67 65 63 64 65 66 69 68 70 69 69 71 70 69 68 69 71 71 71 69 69 68 65 65 66 65 64 62 59 57 55 55 53 53 53 51 49 47 49 50 48 46 44 44 42 40 40 40 40 39 39 39 40 40 40 41 41 42 42 43 43 44 45 45 46 47 49 50 50 50 49 49 49 49 49 50 50 50 50 50 51 52 51
65 67 67 69 70 70 72 75 79 75 70 71 70 67 64 63 62 63 62 65 67 65 66 64 65 66 65 66 66 66 67 67 69 67 67 67 65 64 63 62 61 59 58 56 55 53 51 50 51 50 48 46 47 48 47 45 43 42 40 39 39 39 40 39 39 40 40 40 41 42 43 43 44 45 46 46 47 47 48 49 50 52 53 52 52 52 53 53 53 52 51 51 50 50 50 50 50
65 69 68 68 68 67 69 68 70 67 63 64 65 64 64 62 63 62 61 62 64 64 62 61 62 62 63 65 64 64 63 64 66 64 64 65 64 64 62 60 59 57 55 54 54 51 49 48 50 50 47 44 45 45 44 43 42 40 39 38 38 39 40 40 41 40 41 41 42 44 45 45 47 48 47 47 47 48 48 50 51 53 53 53 53 53 55 56 55 54 53 52 51 49 48 48 48
65 68 67 68 68 66 65 59 57 57 55 56 58 60 61 61 63 63 61 60 61 62 61 60 61 62 64 65 62 62 61 61 62 61 61 62 63 62 59 57 56 55 53 52 51 48 47 46 47 48 45 44 43 42 42 41 40 39 39 39 38 39 40 41 42 42 42 43 44 46 46 47 48 48 48 48 48 49 50 52 54 55 55 54 54 55 56 56 54 54 53 52 51 49 46 45 45
66 67 65 66 65 62 62 56 53 50 45 48 52 56 59 59 60 61 61 58 59 61 60 59 59 61 63 62 61 61 59 58 59 59 60 60 59 59 57 55 52 51 50 49 48 47 46 44 45 45 44 43 42 42 41 41 41 40 40 40 40 40 41 42 42 42 43 44 46 47 47 49 49 48 48 48 49 49 51 52 54 55 54 53 55 56 57 56 54 54 53 51 50 49 46 44 43
65 66 64 63 63 63 62 55 52 46 39 43 50 53 57 57 56 58 58 56 57 59 57 57 58 59 61 60 60 62 59 57 57 59 60 59 56 56 56 53 49 47 47 48 47 47 45 43 44 44 43 43 43 42 42 41 42 42 42 41 41 42 42 42 43 43 44 45 46 47 48 48 49 49 48 49 49 51 53 53 54 54 52 51 54 55 54 54 54 54 53 52 51 50 48 45 44
63 65 65 64 63 62 61 56 49 43 39 40 46 48 53 56 54 56 57 55 56 57 54 55 56 56 59 60 60 62 59 57 57 57 57 56 54 53 54 53 49 46 45 45 45 46 46 45 44 43 42 42 41 41 41 42 43 44 43 43 42 42 42 43 43 44 45 45 46 47 47 48 48 48 48 50 52 54 55 55 54 54 52 51 52 52 51 50 50 51 51 51 50 50 49 45 43
63 64 64 63 62 57 56 54 48 44 42 43 44 45 52 55 52 54 55 55 55 55 53 53 55 53 56 60 60 60 60 59 57 56 55 54 52 51 51 50 47 44 42 42 43 44 46 46 45 43 41 40 39 38 39 40 41 42 42 41 41 42 43 44 44 45 45 46 47 46 46 46 46 47 48 51 53 55 55 54 54 52 50 51 50 49 47 47 47 48 48 48 48 48 47 44 42
62 61 62 61 57 54 51 51 49 44 45 45 40 40 50 54 54 56 54 53 53 55 55 53 55 54 53 57 61 60 60 61 58 54 53 53 51 50 49 47 44 42 40 40 39 40 43 44 43 42 40 39 39 38 38 39 39 39 39 40 40 41 42 43 44 45 45 45 46 45 44 44 46 47 49 50 51 51 51 51 50 47 47 49 48 46 46 45 46 48 48 48 47 46 45 43 44
61 59 61 58 55 53 49 50 49 45 45 42 35 40 49 51 52 52 52 53 54 57 57 54 55 55 53 55 59 60 59 60 58 54 52 52 51 50 48 44 41 40 38 37 36 38 41 42 41 40 39 39 38 38 38 37 37 38 39 40 41 41 42 43 43 44 45 45 45 44 44 44 46 47 47 48 48 48 49 49 46 44 45 47 47 48 47 45 44 46 46 48 48 47 47 46 45
59 58 58 55 55 55 51 50 50 47 47 41 38 45 46 44 45 46 51 55 55 56 56 55 56 56 54 52 54 55 56 56 56 55 53 52 52 52 49 43 41 40 37 36 36 39 41 41 40 39 39 38 38 38 37 37 37 38 40 40 41 41 40 40 41 42 42 43 43 43 43 44 45 46 45 45 45 45 45 43 41 40 41 41 43 44 44 42 41 41 42 44 46 47 47 47 47
57 57 59 55 53 55 53 53 51 48 45 40 37 40 40 41 44 45 52 54 51 50 54 57 57 57 55 53 52 51 52 52 52 53 52 52 51 52 50 43 41 40 38 37 38 40 40 39 39 38 37 38 37 36 36 37 38 39 40 39 39 38 38 38 38 39 39 40 41 42 42 43 43 43 42 40 39 38 38 37 36 36 35 35 36 38 38 37 36 36 37 39 40 43 47 49 50
56 58 62 58 55 56 55 53 53 49 42 38 34 34 35 38 42 44 48 47 44 44 50 56 58 57 55 56 55 50 48 49 49 49 49 50 50 49 48 43 40 40 38 37 39 39 38 37 36 36 36 36 36 36 37 37 38 39 39 38 37 36 36 37 37 38 40 41 41 41 42 42 41 40 39 40 38 37 36 36 36 36 36 36 37 37 37 37 36 35 36 37 39 44 48 51 52
56 59 61 57 56 55 53 52 53 50 44 40 37 35 34 33 35 39 39 37 36 41 47 51 54 55 53 56 58 52 46 45 46 47 47 48 48 47 47 46 42 40 39 38 39 38 37 36 36 37 37 36 36 36 37 37 38 38 38 36 36 36 36 37 38 39 41 41 41 40 40 41 41 40 40 43 42 41 40 39 40 41 41 42 42 40 41 43 41 41 44 42 43 46 47 47 48
53 59 59 56 54 50 49 53 54 52 48 43 39 36 35 33 30 32 35 35 34 37 41 43 47 52 54 54 56 53 45 43 43 44 47 47 47 48 47 48 45 40 39 39 39 38 37 36 37 37 36 36 36 37 37 36 36 37 36 35 35 36 36 37 37 39 39 39 39 37 38 40 41 41 42 45 43 42 42 42 44 45 46 45 45 43 44 47 45 45 48 46 46 46 43 42 42
48 54 58 57 52 50 48 51 54 52 50 45 41 38 36 33 30 32 36 38 36 34 34 37 42 49 52 50 51 52 45 41 41 42 46 46 48 50 47 48 46 41 40 40 39 37 37 37 37 37 36 35 36 36 36 35 35 35 35 35 36 36 36 37 36 37 37 36 36 35 37 39 39 40 41 42 40 41 46 47 48 47 47 47 47 47 46 47 45 45 47 45 44 42 40 41 40
46 49 54 52 48 50 47 47 52 52 50 48 45 41 38 34 34 38 37 36 36 34 32 32 38 46 47 45 47 47 43 40 40 41 44 44 46 49 48 45 44 42 42 41 39 36 36 36 37 38 36 36 36 35 34 34 34 34 35 35 35 36 36 37 37 37 37 36 35 36 38 39 39 39 38 39 41 46 50 50 50 51 50 49 46 47 46 46 46 47 48 45 43 41 42 45 43
45 45 46 42 42 48 47 47 50 48 46 47 47 42 38 36 36 39 36 36 38 36 35 33 36 44 43 41 43 43 40 39 40 41 42 42 43 47 45 42 41 42 43 41 38 36 36 36 37 38 37 36 36 36 34 33 34 34 35 35 35 36 36 37 38 37 36 37 35 38 41 40 40 41 42 44 48 52 51 49 50 52 53 51 46 45 46 45 46 47 48 46 44 43 45 48 45
42 41 41 38 39 43 44 46 46 43 41 45 49 44 40 37 36 37 34 35 39 38 39 35 33 41 43 41 39 39 37 38 39 40 41 41 40 42 42 39 39 40 39 38 37 36 36 36 36 37 38 38 38 37 35 33 34 36 35 36 37 38 37 38 40 38 36 36 36 40 44 44 44 45 48 50 52 52 50 51 51 52 52 51 48 46 46 46 45 45 46 45 44 43 43 43 42
39 41 40 38 37 36 39 44 44 42 41 44 49 47 42 37 35 36 33 35 39 39 41 37 32 36 42 41 37 37 37 37 39 39 40 41 40 40 40 39 38 36 36 35 36 35 36 36 35 36 37 37 39 39 37 34 35 39 39 39 41 40 40 40 41 39 38 38 37 39 44 49 51 51 51 52 53 50 49 51 51 50 50 50 49 47 46 46 45 44 45 44 45 44 41 41 42
36 37 38 37 35 33 36 40 42 41 42 43 46 47 44 39 36 34 33 36 40 42 41 37 31 32 38 39 37 36 36 36 37 38 39 40 40 40 39 40 38 36 35 35 35 35 36 37 35 35 35 35 37 37 38 36 35 38 40 41 42 41 42 42 42 41 41 40 38 37 41 49 52 52 52 53 53 51 49 48 48 48 48 47 47 47 47 47 47 46 47 47 46 45 43 43 41
35 32 34 34 32 34 36 37 39 41 42 40 42 45 44 42 37 34 35 37 39 39 38 34 30 30 34 37 37 37 36 35 36 36 37 38 38 38 38 39 38 35 35 35 35 34 35 36 35 35 34 33 34 35 36 35 35 37 38 39 39 40 41 42 43 43 43 42 40 37 38 46 49 50 52 52 50 50 50 48 47 47 47 46 46 46 47 47 48 46 47 47 45 43 43 43 40
36 32 30 29 27 30 33 36 36 38 42 41 41 43 43 43 39 34 35 37 36 34 34 33 30 29 31 34 37 37 35 35 36 35 35 35 34 35 36 36 35 34 35 34 33 33 34 34 34 34 32 31 32 33 34 34 35 37 37 38 37 37 39 41 41 43 46 46 44 39 38 44 47 51 53 49 47 48 49 49 47 46 46 47 46 45 46 46 46 44 44 44 40 39 39 40 37
33 31 29 28 26 27 31 35 37 36 40 42 42 42 42 43 40 35 35 37 36 34 32 33 31 28 29 32 35 36 34 35 38 36 33 32 32 33 34 34 34 34 35 34 32 32 33 33 33 32 31 31 31 32 34 34 35 36 38 38 37 37 37 39 39 41 45 46 46 43 40 43 45 48 50 46 44 46 47 47 45 43 44 47 46 46 46 46 45 44 45 44 39 38 39 37 33
27 27 26 27 26 26 30 33 35 35 37 40 42 42 41 42 40 36 36 38 37 35 32 33 31 28 28 29 32 35 33 32 36 36 33 31 30 32 32 32 34 34 35 35 33 32 32 33 33 31 31 31 30 31 33 35 35 36 37 38 36 36 37 38 38 38 41 43 46 45 42 43 42 43 45 43 41 42 45 45 44 42 43 46 46 45 45 45 44 44 44 44 40 39 40 37 32
27 26 25 27 28 27 27 29 30 30 33 38 40 42 41 40 41 38 37 38 38 37 34 34 32 30 29 27 28 32 30 27 32 34 33 30 28 30 30 31 33 34 35 35 34 33 31 31 31 30 29 29 29 29 32 34 35 37 37 38 38 37 37 37 38 37 38 41 44 45 43 43 43 44 42 40 41 41 41 42 43 43 44 45 45 44 45 45 45 44 44 44 42 41 40 34 30
24 24 24 25 26 25 26 28 30 28 32 37 39 43 41 38 42 41 38 39 38 37 35 33 31 31 30 28 26 27 25 24 28 30 31 29 27 28 29 30 31 32 33 34 34 34 31 30 29 28 26 28 28 28 31 33 36 37 37 38 39 39 38 37 38 38 38 40 41 43 43 43 45 45 41 39 41 40 38 39 40 42 43 44 44 46 46 44 43 43 43 44 42 39 35 29 26
20 21 23 24 23 25 28 30 31 31 34 36 37 43 41 37 41 43 41 40 39 38 35 32 31 30 30 29 27 24 21 22 26 28 28 26 26 27 27 29 30 30 31 32 33 33 31 31 30 28 26 26 27 28 30 32 34 36 36 37 39 40 39 38 37 38 38 39 39 40 43 46 46 45 42 40 40 39 37 36 37 39 41 42 44 47 45 44 43 41 39 40 37 29 25 24 23
21 20 22 23 22 25 28 29 31 32 35 35 35 39 39 36 41 45 43 42 41 38 34 30 30 30 29 28 28 24 19 20 23 25 25 24 24 25 26 28 29 29 30 31 32 31 31 31 31 29 27 26 26 28 30 31 32 35 36 36 37 38 38 37 36 37 37 38 39 38 42 47 46 43 43 41 40 39 37 35 35 38 41 43 45 47 46 45 43 37 31 31 27 19 18 21 22
22 20 20 21 23 26 27 29 31 32 33 35 36 37 36 37 43 47 46 46 44 38 35 32 29 29 29 28 28 26 21 18 19 21 22 23 23 24 25 27 28 29 29 30 30 30 31 30 31 31 29 26 26 27 31 31 31 33 35 36 36 36 36 36 35 36 37 38 39 39 39 44 44 42 41 41 40 39 38 37 37 40 44 46 45 45 45 43 37 32 29 28 23 18 18 20 20
22 21 20 19 22 24 26 30 32 33 32 33 36 37 36 38 43 47 48 49 47 41 36 34 31 30 30 29 28 27 24 19 18 19 21 22 22 23 24 24 26 27 28 28 28 29 30 30 30 31 30 28 26 27 31 32 31 32 34 35 36 35 34 35 34 35 38 39 39 38 38 40 42 42 41 41 40 39 39 39 39 39 41 44 42 40 39 35 30 29 29 26 23 21 21 21 22
23 21 20 20 23 25 27 29 30 32 33 34 37 37 36 37 38 42 45 47 49 46 41 37 35 33 31 31 30 27 25 21 19 18 19 20 20 21 22 22 24 24 25 27 28 27 28 29 29 29 31 30 27 27 28 29 29 28 30 32 33 33 33 33 33 34 36 38 38 38 38 39 41 41 40 41 41 39 40 39 38 37 38 40 38 32 28 26 27 30 29 24 21 22 24 25 22
23 22 20 22 26 28 27 29 30 31 32 35 38 37 38 38 35 38 42 44 47 49 47 41 39 38 33 32 33 31 26 22 19 18 17 18 19 20 20 21 22 22 23 25 26 26 26 28 28 28 29 29 28 26 25 25 25 25 26 28 29 29 30 30 31 32 33 35 36 37 40 41 42 41 42 43 42 40 42 42 40 38 36 35 31 25 23 24 27 29 27 23 20 22 24 24 20
22 22 21 22 25 27 27 29 30 31 32 35 38 38 39 40 39 40 40 43 45 47 50 47 42 41 37 33 34 33 31 27 22 20 18 17 18 19 20 21 21 22 22 23 25 26 26 27 27 27 27 28 28 26 24 22 22 23 24 26 27 27 28 29 29 30 33 35 35 39 42 42 43 43 43 42 40 39 39 40 38 35 32 27 24 23 22 23 22 20 20 19 20 21 22 21 18
21 23 22 21 24 26 27 28 29 31 33 35 37 38 39 40 42 42 41 43 45 45 48 50 46 44 40 36 36 34 34 32 26 22 21 18 17 18 19 20 20 21 22 23 24 25 26 26 26 27 26 27 28 26 23 21 20 21 23 25 27 26 26 27 29 30 32 35 36 39 42 43 44 44 42 42 44 42 37 34 31 29 26 23 23 22 22 23 19 16 18 19 19 22 23 22 18
19 22 22 20 23 26 26 27 28 30 33 35 37 39 40 42 42 42 40 42 44 43 46 50 49 47 44 41 39 36 34 33 30 26 25 22 19 18 18 19 19 20 20 21 22 24 25 24 25 26 25 26 27 26 23 21 20 20 22 25 26 27 27 28 31 33 35 37 38 39 40 41 43 43 44 44 49 48 38 30 27 26 24 23 24 23 24 24 20 21 23 23 25 27 27 27 25
16 20 22 21 22 25 25 26 27 29 32 33 37 40 41 42 42 42 41 41 43 43 45 49 49 48 47 45 42 38 35 33 31 29 26 24 20 18 18 18 18 19 19 20 20 22 23 24 24 24 25 25 26 26 23 21 21 21 23 26 27 29 31 32 34 36 38 40 40 39 38 37 39 42 43 43 47 45 34 27 27 26 25 24 25 25 28 26 23 28 32 31 32 31 30 30 30
13 17 20 20 21 23 24 26 26 29 34 34 35 41 44 41 40 42 42 42 43 43 44 45 46 48 47 45 42 40 37 33 31 30 29 26 22 20 19 18 18 18 18 19 19 20 22 23 24 24 24 25 25 25 23 20 20 21 22 25 26 28 32 33 32 34 38 40 41 40 39 37 38 40 41 40 42 37 29 28 28 27 26 27 29 32 35 33 32 38 42 37 34 35 36 36 35
10 13 16 17 19 22 24 25 25 29 35 35 34 40 45 43 40 41 42 42 42 40 42 42 44 47 46 45 43 40 37 34 33 34 33 30 26 23 21 20 19 19 19 19 19 20 21 23 23 24 24 24 24 24 22 20 19 20 21 23 24 26 29 30 30 32 36 40 42 40 39 38 40 42 40 39 37 31 28 29 29 30 32 34 38 40 40 40 44 47 47 40 36 41 44 44 43
9 9 12 16 18 21 23 23 24 27 32 35 33 35 41 42 40 39 40 43 42 39 40 41 43 46 45 44 43 39 36 35 36 36 35 31 29 26 24 22 21 20 20 20 20 20 20 22 23 23 23 24 24 23 22 20 18 19 20 21 23 25 26 27 27 30 35 40 41 39 37 39 42 42 39 36 32 29 29 30 32 35 38 41 43 43 42 43 48 51 48 42 40 46 51 49 47
8 8 10 14 17 20 22 23 25 26 29 35 35 33 39 41 39 38 40 43 44 41 39 41 44 46 44 41 40 37 35 35 35 35 34 33 31 29 27 26 25 24 22 21 20 21 21 21 23 23 24 25 25 24 23 20 18 18 19 20 22 24 25 26 27 29 34 38 39 38 37 40 40 38 35 32 29 30 31 32 35 38 41 44 45 45 43 43 48 53 53 51 47 49 53 51 48
7 7 9 12 15 19 22 24 25 26 28 32 34 33 38 41 38 38 40 41 43 43 41 40 41 43 43 41 39 36 34 34 33 34 35 34 33 32 32 31 31 30 28 26 25 23 24 24 25 25 25 25 25 24 23 21 19 18 19 19 21 22 23 25 26 27 31 36 37 37 36 37 37 34 32 31 30 31 33 35 36 38 41 44 46 46 43 41 49 55 56 58 54 49 50 53 54
6 7 9 11 14 18 21 23 24 26 28 29 29 30 34 38 38 36 37 35 37 39 42 42 40 40 41 41 40 38 35 33 33 35 36 34 35 36 37 35 35 35 35 34 31 28 28 27 28 28 28 26 25 24 24 22 19 18 18 19 20 20 21 23 25 25 29 33 35 36 34 34 34 31 30 31 32 32 34 35 36 39 42 44 47 47 42 43 51 54 54 54 52 48 47 52 57
7 7 8 11 15 19 21 21 23 26 29 28 26 26 29 34 37 35 33 32 33 36 40 41 39 39 40 40 40 39 37 36 36 36 35 35 36 38 38 37 37 38 38 37 35 32 30 30 30 32 33 32 28 27 25 24 21 19 18 19 19 20 20 21 22 23 26 31 34 35 34 33 33 31 31 32 33 33 34 36 39 42 45 45 46 43 41 45 50 52 54 50 48 50 49 51 55
7 6 8 12 16 20 22 22 24 25 25 24 23 25 26 29 33 33 31 30 31 32 36 38 36 35 36 38 39 39 38 38 37 36 35 34 35 36 36 37 37 37 37 35 33 32 32 32 32 34 36 36 34 31 28 26 24 22 20 20 20 20 19 20 21 23 27 31 33 35 34 32 32 32 34 35 34 35 36 40 43 45 45 46 45 42 41 45 48 51 56 53 48 49 50 51 53
7 6 8 12 17 19 22 21 23 25 23 20 20 22 24 24 26 29 30 28 28 29 32 35 34 32 32 33 35 37 38 39 38 36 35 34 35 35 36 37 36 35 34 33 31 31 31 32 33 34 37 39 38 36 33 30 27 25 23 22 22 22 21 21 22 25 28 31 33 34 32 31 31 32 33 34 35 37 39 43 45 46 47 47 48 47 43 44 48 51 55 54 49 48 49 50 52
7 6 7 9 12 15 18 18 20 22 24 22 21 21 22 22 22 26 27 25 26 28 29 32 34 33 33 32 33 36 39 40 39 37 34 34 34 35 36 36 34 32 32 32 31 31 32 32 33 34 36 39 39 38 36 32 30 27 26 24 24 24 24 23 25 27 29 31 32 32 31 31 31 31 32 34 37 39 41 45 47 48 48 47 50 50 44 44 48 50 54 53 49 48 49 49 51
6 6 7 7 8 10 14 16 17 19 23 23 23 23 22 21 21 22 24 25 26 28 29 31 34 36 37 34 33 36 39 40 39 36 34 35 36 34 34 35 33 30 30 31 31 31 32 33 33 33 34 38 39 39 37 34 32 29 27 25 25 26 26 26 27 29 31 33 33 32 31 31 32 33 35 37 40 43 45 48 49 48 47 46 48 49 44 43 46 48 51 51 48 47 48 49 50
6 6 6 6 6 8 12 16 16 19 24 22 20 23 24 23 21 18 22 27 28 30 32 33 36 39 39 38 36 37 40 39 37 36 36 39 38 35 34 35 32 30 29 29 30 30 31 31 32 32 33 35 37 39 38 35 34 32 29 27 27 27 28 29 29 30 32 34 35 34 32 31 33 34 37 39 43 47 48 50 50 49 48 47 46 46 43 42 44 45 46 47 47 47 48 50 51
7 7 6 6 7 8 11 16 18 21 24 19 16 21 24 25 23 19 21 26 29 31 34 35 37 37 38 38 37 37 40 38 36 36 39 41 39 36 36 35 32 29 28 29 30 31 31 31 31 31 31 32 34 36 37 35 34 32 30 28 27 28 29 30 31 31 32 34 36 35 33 33 35 35 37 40 45 48 49 49 49 48 49 47 44 42 40 39 38 39 41 43 46 49 49 50 52
8 7 7 8 9 9 10 15 18 21 21 18 16 20 23 24 23 21 23 25 27 30 32 33 35 34 34 36 36 36 38 37 36 37 38 38 37 36 35 34 31 28 27 28 30 31 32 32 32 32 31 31 31 33 34 33 32 30 29 26 25 27 28 30 30 31 32 34 33 32 33 35 36 36 38 41 44 46 47 46 45 45 45 46 43 39 36 35 35 35 38 40 44 48 48 48 49
9 8 8 8 9 9 10 11 12 16 19 18 18 22 24 24 24 25 24 23 25 28 29 29 31 31 30 33 34 34 35 36 36 37 36 35 35 33 31 31 29 28 28 28 30 31 31 32 33 33 32 32 32 33 33 33 31 30 29 26 25 25 27 28 29 29 31 31 30 29 33 36 37 38 39 41 42 42 42 42 42 42 42 42 39 36 34 33 35 36 37 39 41 44 46 46 47
10 9 8 8 8 9 10 10 9 11 14 16 19 23 23 23 25 25 24 24 24 26 27 27 28 29 29 31 32 32 32 32 34 35 34 33 34 31 29 28 27 27 28 28 29 30 31 31 33 34 34 33 34 34 35 35 33 31 30 28 25 23 24 26 27 27 28 28 28 30 33 35 37 38 40 40 40 40 40 40 39 39 38 38 36 34 32 32 34 36 37 38 38 39 42 45 47
10 9 8 7 7 8 9 12 10 9 10 11 16 21 21 20 23 22 21 24 25 25 27 27 27 27 29 31 32 31 31 31 31 33 32 33 33 32 32 31 29 28 29 29 30 29 30 30 33 35 35 34 34 35 36 37 36 34 32 29 26 23 22 23 25 27 27 28 30 32 34 35 36 39 40 39 39 39 39 38 37 37 36 36 36 35 33 32 32 34 37 39 38 37 39 42 46